Wind_Speed
18 21 22 23 22 20 20 20 21 21 22 23 24 25 27 28 29 31 32 32 33 33 33 34 35 36 37 38 39 40 40 39 38 36 35 34 34 35 36 36 36 35 35 35 36 37 38 39 40 40 39 37 38 38 39 39 40 40 41 42 42 42 41 40 38 36 34 30 27 24 22 21 20 19 18 15 13 11 10 9 9 10 10 10 10 10
16 18 19 19 20 20 18 19 19 19 20 21 22 22 23 24 25 27 28 30 30 31 31 32 33 35 36 38 40 41 42 41 38 36 34 34 35 36 38 39 38 37 36 35 35 36 37 39 39 39 38 37 37 38 38 38 39 39 39 39 38 38 38 37 36 34 31 29 26 24 23 22 20 18 15 13 11 10 9 9 9 10 11 11 11 10
15 15 16 17 18 18 17 17 18 18 18 19 19 20 20 20 20 21 21 23 24 26 26 27 27 29 30 32 34 36 38 39 38 36 36 36 37 38 40 41 40 39 38 36 35 35 37 37 37 37 36 36 36 37 37 37 37 37 36 35 34 33 32 32 31 29 28 27 26 25 23 21 18 15 13 11 10 9 8 8 9 10 11 11 10 9
15 14 15 16 17 17 17 16 16 16 17 17 18 18 18 17 17 16 17 17 18 18 19 20 21 21 21 22 24 26 28 31 33 34 35 35 36 37 38 40 40 40 38 36 35 35 35 36 36 35 35 36 36 36 36 35 35 35 33 32 30 28 27 26 26 25 26 26 25 24 21 18 15 13 12 10 9 8 7 8 9 10 11 11 10 9
13 13 14 14 14 15 15 15 15 15 16 16 15 15 14 14 13 13 13 14 13 13 13 14 15 15 14 14 14 15 17 20 23 25 26 26 27 28 29 31 33 34 34 34 33 33 33 34 34 34 35 36 36 36 35 34 33 32 31 29 28 27 25 24 24 23 23 23 22 20 18 15 14 12 11 9 8 7 7 8 9 10 11 10 10 9
11 11 13 13 13 13 13 14 14 14 14 13 12 12 11 11 11 11 11 11 11 12 11 12 12 13 13 12 11 11 11 13 15 16 17 17 18 18 19 20 22 24 26 28 30 32 33 33 33 34 35 35 35 35 34 34 32 31 30 29 28 27 26 25 23 22 21 19 17 16 14 13 13 12 10 9 8 7 8 9 10 11 11 10 10 9
9 11 12 13 14 13 13 13 12 12 13 13 12 11 11 12 12 12 13 13 13 13 13 13 13 14 15 14 14 13 14 14 15 16 16 17 17 17 18 18 19 20 22 24 26 28 31 32 33 33 33 33 33 33 33 33 32 31 30 29 28 27 25 24 22 19 17 15 14 13 12 12 11 10 9 8 7 8 9 10 11 11 11 10 10 9
10 11 12 13 13 13 13 12 12 12 12 13 13 13 13 13 14 14 15 16 16 16 16 16 16 16 17 17 17 17 18 19 19 19 19 20 20 20 20 20 20 20 21 22 23 24 26 27 29 30 30 30 30 30 31 31 30 30 28 27 25 24 22 20 18 17 15 13 12 11 11 10 10 9 8 7 8 9 10 11 11 10 10 10 10 9
13 13 12 13 13 13 12 11 11 12 12 13 14 15 15 15 15 15 16 16 17 17 17 18 17 17 18 19 20 21 21 21 22 22 21 21 21 20 20 20 19 19 19 19 19 20 20 21 22 23 24 26 26 27 27 27 26 25 24 23 21 20 18 17 16 15 14 13 12 11 10 9 8 7 7 7 8 10 11 11 11 10 9 10 10 10
15 14 12 12 13 13 13 12 12 12 12 13 13 14 15 16 17 16 15 15 15 17 17 18 18 19 19 20 21 22 22 23 22 22 21 21 20 20 19 18 18 17 17 17 16 16 16 16 16 16 17 19 20 21 21 21 20 20 19 18 17 16 16 15 14 14 13 12 11 9 9 8 7 7 7 8 9 11 12 12 12 11 10 10 10 10
14 14 13 13 12 13 13 14 14 13 13 13 13 13 14 15 16 16 15 14 15 16 17 18 19 20 19 19 20 21 22 23 23 22 22 21 21 20 20 18 17 16 15 15 14 14 13 12 12 11 11 12 13 14 15 15 15 15 15 15 14 14 14 13 13 12 11 10 9 8 8 7 7 7 8 9 10 11 12 13 13 12 12 12 11 11
13 13 13 13 13 13 13 14 15 15 14 14 12 11 12 14 16 16 16 15 15 16 17 18 19 19 19 19 18 18 19 21 22 22 21 21 21 21 20 19 18 17 16 15 13 12 11 10 9 8 8 8 9 10 11 12 12 13 13 13 13 13 12 12 11 10 9 8 8 8 7 8 8 8 9 10 10 11 12 12 13 13 13 13 12 12
13 13 13 13 13 13 14 15 15 15 14 14 12 10 11 13 15 17 18 18 17 17 18 18 18 18 17 17 16 16 16 17 17 18 17 17 17 16 16 15 15 14 14 14 13 12 10 9 8 7 7 7 8 9 10 11 12 12 12 12 12 12 11 10 10 9 9 8 8 8 8 9 9 9 10 10 10 10 11 11 11 11 12 12 12 12
13 13 12 11 11 12 14 15 14 13 13 13 13 14 15 17 18 18 19 18 18 18 18 19 18 16 15 15 14 14 14 14 14 14 15 15 14 13 12 12 12 11 11 12 13 12 12 11 10 8 7 7 7 8 9 10 11 11 11 11 11 10 10 10 10 9 9 9 8 8 9 9 9 10 9 9 9 10 10 10 10 10 11 11 12 12
13 12 10 9 10 11 13 14 14 13 13 13 15 17 18 19 19 19 18 17 17 18 19 18 17 16 14 14 13 13 13 14 15 16 16 15 14 13 12 13 13 12 11 13 13 13 13 12 12 10 8 7 6 7 8 9 9 9 9 10 9 9 9 9 9 9 9 9 8 8 9 9 9 8 8 8 8 8 9 9 9 9 10 10 10 11
13 12 10 9 10 11 13 14 14 13 14 15 16 18 19 19 18 18 18 18 18 18 18 15 13 11 10 10 11 11 12 14 16 17 17 16 14 13 12 13 14 13 13 13 13 13 13 13 12 11 10 8 7 7 8 8 9 9 9 9 9 9 9 9 9 9 9 9 8 8 8 8 7 7 7 7 7 8 8 8 9 9 10 10 10 10
12 11 10 10 10 11 13 14 14 14 15 16 17 18 19 19 19 19 18 19 18 16 14 11 7 4 4 7 9 10 11 14 16 16 16 15 14 12 11 12 13 13 13 13 13 13 13 12 12 11 10 9 8 8 8 8 8 8 8 8 8 8 8 8 8 8 8 8 8 7 7 6 6 6 6 6 7 7 8 9 9 10 11 11 11 11
12 11 11 10 11 12 14 15 15 15 16 17 18 18 18 18 19 19 19 19 16 13 11 9 7 5 4 5 7 10 11 13 15 17 16 15 13 12 11 11 12 13 13 13 12 12 12 12 11 11 10 9 9 9 9 8 8 8 8 8 8 8 8 8 8 8 8 7 7 6 6 6 5 5 6 6 7 8 9 9 10 11 11 12 11 10
12 13 12 12 12 14 15 16 16 17 17 18 19 18 18 17 18 19 19 18 15 13 12 9 7 6 6 7 10 13 13 14 15 17 17 15 14 13 12 12 12 12 12 12 12 12 12 11 11 10 9 8 8 8 8 7 7 7 7 7 7 7 7 7 7 7 7 7 6 6 6 6 6 6 6 7 8 9 9 10 11 12 12 12 11 10
13 14 14 14 14 15 15 16 18 19 19 20 20 20 18 18 18 18 17 17 15 14 13 11 9 9 10 13 15 15 15 14 16 17 16 15 14 13 13 12 12 13 13 12 12 11 11 11 10 9 9 8 7 7 7 6 6 6 6 6 6 6 6 6 6 6 6 6 6 6 6 6 6 7 7 8 9 9 10 11 11 12 12 11 11 10
13 13 12 11 13 15 15 17 18 18 19 20 20 20 19 19 18 18 18 17 16 15 13 12 11 11 14 16 17 16 16 16 17 17 14 13 13 14 13 12 12 13 13 12 12 11 11 11 10 9 9 8 8 7 7 6 6 6 6 6 6 6 6 6 6 7 7 7 7 7 7 7 7 8 8 9 9 10 11 11 11 12 11 11 10 10
8 10 9 8 8 9 11 13 15 17 18 20 21 20 19 19 18 18 19 18 17 15 14 13 12 12 14 16 17 17 17 16 17 16 12 9 10 13 13 13 12 13 13 13 12 12 11 11 10 10 10 10 9 8 8 8 7 7 7 7 6 6 6 7 7 7 8 8 8 8 8 8 8 8 9 9 10 10 11 11 11 11 11 10 10 10
3 6 7 7 6 5 5 8 12 15 17 18 19 19 19 18 18 19 19 18 17 16 15 14 13 13 14 16 17 17 17 16 16 14 11 7 8 12 14 13 12 12 12 12 12 11 11 10 10 10 10 10 10 9 9 8 8 7 7 7 7 7 7 7 8 8 9 9 9 9 9 9 9 9 9 10 10 11 11 11 11 11 11 11 10 10
3 4 6 6 5 4 4 6 10 14 16 17 17 16 16 16 16 17 18 17 17 17 16 15 15 15 15 17 18 18 18 18 16 12 8 6 9 13 15 13 12 12 12 11 10 9 9 8 8 7 7 7 7 7 7 7 7 7 7 7 7 7 8 9 9 10 10 10 10 9 9 9 9 9 10 10 11 11 11 12 12 11 11 11 11 11
4 4 5 5 5 4 3 5 8 12 15 16 17 16 15 15 15 15 16 16 16 16 16 16 15 14 14 16 17 18 18 18 16 11 6 6 11 15 15 14 13 13 12 11 9 8 7 7 6 5 5 5 5 5 5 5 6 6 7 7 8 9 9 10 10 10 10 10 10 9 9 9 10 10 10 11 11 12 12 12 12 12 12 12 12 12
6 6 5 5 4 4 4 5 7 9 12 14 16 16 16 16 16 16 16 16 17 17 17 15 12 10 12 14 15 17 18 18 16 12 7 8 12 16 15 14 13 13 12 11 9 8 7 6 6 5 5 5 5 4 4 4 5 6 7 8 9 10 10 11 10 10 10 10 10 10 10 10 11 11 11 12 12 12 12 12 12 12 12 12 13 13
8 7 6 6 5 5 5 6 7 8 10 12 13 14 15 16 16 16 16 17 18 18 16 11 8 7 9 10 12 15 17 17 15 12 9 10 13 15 16 15 14 13 12 11 9 8 7 7 6 6 6 6 5 5 5 5 6 6 8 9 10 10 10 10 10 10 10 10 10 10 10 11 11 12 12 12 12 12 12 12 12 12 12 13 14 15
11 10 9 8 8 8 7 7 7 8 9 10 11 12 13 14 16 17 16 18 18 17 14 10 7 6 6 7 10 14 17 16 14 12 9 10 12 14 17 17 15 13 12 10 9 8 7 6 6 6 6 6 7 7 8 8 8 8 8 9 10 10 10 10 10 10 10 10 10 10 11 11 12 12 12 12 12 12 12 12 12 12 13 14 15 16
12 12 13 12 12 11 10 9 8 8 8 9 9 10 10 12 14 17 18 19 18 15 12 10 8 7 6 7 9 12 14 14 14 13 10 10 10 13 18 18 16 14 11 8 6 6 6 6 6 6 6 7 8 9 10 11 11 11 11 10 11 11 11 11 11 11 11 11 11 11 11 11 11 11 11 11 12 12 12 12 12 12 13 14 15 16
12 13 14 14 14 14 13 12 11 9 8 8 9 10 10 10 12 14 16 19 19 17 13 11 10 9 9 8 6 5 8 13 15 14 11 8 9 13 17 17 17 15 11 6 4 3 3 6 7 7 7 8 9 10 12 12 12 12 12 12 11 12 12 12 12 12 11 11 11 11 11 11 11 11 11 11 11 11 11 11 11 11 13 14 15 15
12 13 14 15 15 16 16 15 14 12 11 10 10 11 10 10 9 10 13 17 19 18 15 14 13 13 12 8 4 1 4 12 16 15 12 9 8 11 17 17 17 15 12 7 4 3 1 4 7 9 9 9 10 11 12 13 13 13 13 12 12 12 12 12 12 12 12 12 12 12 12 11 11 11 11 11 11 11 10 10 10 10 11 13 14 14
13 14 14 15 15 16 16 16 15 14 12 11 10 10 10 9 8 9 12 15 17 17 16 15 15 16 14 8 4 2 4 12 16 16 13 10 8 9 14 16 16 15 14 9 5 3 2 3 6 10 11 11 12 12 12 13 13 13 12 12 12 12 12 12 12 12 12 12 12 12 12 12 12 12 11 11 11 11 10 10 9 9 10 12 13 14
13 14 14 14 15 15 14 14 12 11 10 9 8 8 7 7 7 8 11 13 14 14 13 14 15 16 14 9 5 3 4 9 14 16 14 10 7 7 11 14 15 15 14 12 7 4 3 3 5 8 11 12 12 12 12 13 13 13 12 12 12 12 12 12 12 12 12 12 12 13 12 13 13 13 12 12 11 11 10 10 9 9 10 11 13 14
13 13 13 13 13 12 11 10 9 8 7 7 6 6 6 5 6 7 10 11 12 10 8 9 10 13 13 8 5 3 3 7 12 15 14 11 7 6 10 14 15 15 14 12 9 5 3 4 5 6 9 13 13 12 12 12 13 13 13 12 12 11 12 12 11 11 12 12 13 12 12 12 12 12 12 12 11 11 11 11 11 10 11 12 13 14
12 12 12 11 10 9 9 8 7 6 6 6 6 6 6 6 6 7 9 9 9 7 5 4 4 7 8 6 3 2 3 5 9 12 13 12 9 6 9 13 15 15 15 14 10 6 4 5 7 7 8 11 13 12 12 12 12 12 12 12 12 11 11 11 11 11 11 12 13 13 12 12 12 12 11 11 11 11 11 11 12 12 12 12 13 13
12 11 10 9 8 8 7 7 6 6 6 6 6 6 6 6 6 7 8 8 7 6 4 3 3 3 3 3 2 2 2 3 6 9 11 13 10 7 6 10 13 15 16 16 13 8 5 6 8 9 9 9 10 11 12 13 13 12 12 11 11 10 10 10 10 10 10 11 12 12 13 13 12 12 11 11 11 11 11 11 12 12 12 12 13 13
11 10 9 8 7 7 7 7 6 6 6 6 6 6 6 6 6 7 7 7 6 5 4 3 3 3 2 2 1 2 2 3 5 8 11 13 12 8 5 7 11 14 16 17 15 11 8 7 8 9 9 8 7 8 10 13 13 12 10 10 9 8 8 8 8 8 9 10 10 11 12 12 12 12 12 12 12 12 12 12 12 12 13 13 13 14
11 10 9 8 7 7 7 7 7 7 7 6 6 5 5 5 5 6 6 6 6 5 4 4 3 3 2 2 1 1 1 3 5 9 12 13 12 9 6 6 10 13 14 15 15 13 10 8 8 7 7 6 6 8 10 11 12 11 10 9 8 7 6 6 6 7 7 8 9 10 10 11 11 12 12 12 12 13 13 13 13 13 13 14 14 15
10 10 9 8 7 7 7 8 8 7 7 6 6 5 4 4 4 5 5 5 5 4 4 3 3 3 3 2 2 3 3 5 7 10 11 12 11 9 6 7 9 12 12 11 11 11 10 9 8 8 7 6 6 7 9 10 10 9 9 8 7 6 5 5 5 6 6 7 7 8 8 9 10 11 12 12 13 13 13 13 14 14 14 15 15 16
9 10 9 8 7 7 7 7 7 7 6 5 5 4 4 4 4 4 4 4 4 4 4 3 3 3 3 4 4 6 7 8 9 10 10 10 8 6 5 6 8 11 11 10 8 8 7 7 8 8 8 7 7 6 6 7 6 6 6 5 5 5 4 5 5 5 5 6 6 6 8 9 10 11 12 12 13 13 13 14 15 15 15 16 16 16
9 10 9 9 8 7 7 7 6 6 5 4 4 4 4 4 4 5 5 5 5 5 4 5 5 5 6 7 8 8 9 9 9 9 8 7 6 5 4 5 7 9 10 9 8 6 6 5 6 6 6 6 5 5 5 4 4 3 3 4 5 5 5 5 4 4 4 5 6 7 9 10 11 12 13 13 13 14 14 15 16 16 16 16 15 15
10 10 10 9 9 8 8 7 6 5 5 4 4 4 4 4 5 5 5 6 6 6 6 6 7 9 10 10 10 10 10 9 8 8 7 7 7 7 6 6 6 7 7 6 6 5 4 4 4 4 4 3 2 2 2 2 2 2 3 4 6 6 5 4 3 3 4 5 7 8 10 11 12 13 14 15 15 15 16 16 16 16 15 15 14 13
11 11 10 10 9 8 7 7 6 6 5 4 4 4 4 4 4 5 6 6 7 7 7 8 9 10 12 12 11 10 9 9 8 7 7 7 7 7 7 6 5 4 4 4 4 4 3 2 2 2 2 1 1 1 2 3 4 4 4 4 5 6 4 3 3 4 6 7 8 9 11 12 13 14 15 16 16 17 17 17 16 15 14 13 12 11
11 11 10 9 9 8 7 7 6 6 5 5 5 5 5 4 5 5 6 7 7 8 8 9 9 11 12 12 11 10 9 9 8 8 7 7 6 6 5 4 3 2 2 3 3 3 3 2 2 1 1 1 2 3 4 5 6 6 5 5 5 5 5 6 7 7 7 8 8 10 11 12 14 15 16 17 17 17 17 16 15 14 12 11 10 10
11 10 10 9 8 7 7 6 6 5 5 5 5 5 5 5 5 6 7 7 8 9 9 10 10 11 12 12 11 11 10 9 8 8 7 7 6 5 5 4 3 3 3 3 2 2 1 1 1 1 2 3 4 5 6 6 7 6 5 4 4 5 6 7 7 7 8 8 9 10 11 13 14 16 17 18 18 18 17 16 15 13 11 9 8 8
10 9 8 8 7 6 6 5 5 5 5 5 6 6 6 6 6 6 7 8 9 9 10 9 10 11 12 13 12 12 11 10 9 9 8 7 7 6 5 4 4 3 3 2 2 3 2 2 3 4 5 6 7 7 7 7 6 5 4 3 3 4 5 5 5 6 7 8 10 11 12 13 14 15 16 18 18 18 17 16 14 13 11 9 8 7
8 7 7 6 5 5 5 4 5 5 5 6 6 6 6 6 7 7 8 8 9 10 10 9 10 11 14 14 14 13 13 12 11 10 8 7 7 6 5 4 3 3 2 3 3 4 5 5 6 6 7 7 7 7 6 5 4 3 3 3 3 3 4 5 5 6 8 9 10 12 13 13 14 15 16 18 18 18 17 15 14 12 11 10 9 8
6 5 4 4 4 4 4 4 4 5 5 6 6 7 7 7 7 8 9 9 9 10 10 10 11 12 13 13 13 12 12 12 11 9 8 6 5 4 3 2 1 2 3 4 5 6 7 7 7 6 6 6 5 5 4 2 1 1 1 2 2 3 4 5 6 7 9 10 11 11 12 12 13 14 16 17 17 17 16 15 14 12 11 10 9 9
3 3 3 3 3 3 3 4 5 5 6 7 8 8 8 7 8 8 9 9 9 9 9 10 11 13 13 12 12 11 11 10 9 8 7 5 4 3 2 1 2 3 4 5 7 7 7 7 5 4 3 3 3 2 1 0 0 0 1 2 3 4 5 7 8 9 10 10 11 11 11 11 11 13 14 16 16 16 16 15 14 13 11 9 9 10
3 3 2 2 2 3 3 4 5 6 7 8 9 9 8 8 7 7 7 7 7 8 8 10 11 12 12 11 11 10 9 8 8 7 6 4 3 2 1 2 3 4 5 6 6 5 3 3 2 1 1 1 1 1 2 2 1 0 1 2 4 6 7 8 9 10 10 10 10 10 10 10 11 12 13 14 15 16 16 15 14 12 11 10 10 11
3 3 3 3 3 3 4 5 6 7 8 8 9 9 8 8 7 7 6 6 6 6 7 8 9 10 10 10 9 8 7 6 6 5 4 3 2 1 1 3 4 5 6 6 5 3 2 2 2 2 3 3 3 2 1 1 1 2 2 4 5 7 8 9 10 10 10 10 10 10 11 11 11 12 12 13 14 15 16 15 14 13 12 12 12 13
Wind_Direction
203 209 213 214 213 212 215 220 222 225 229 233 236 238 241 242 243 245 246 247 248 249 249 250 250 251 251 251 252 253 254 255 254 252 250 249 251 256 260 261 259 255 250 246 244 242 242 241 239 236 231 224 221 220 216 213 211 210 207 206 206 207 208 209 210 211 211 212 210 208 206 208 212 217 221 223 225 229 234 239 244 248 249 250 250 249
196 200 203 207 208 208 210 215 218 219 223 228 232 234 237 238 240 243 244 246 247 249 250 251 252 253 253 254 254 255 255 255 254 252 250 249 251 255 259 261 259 256 252 249 246 244 242 240 236 231 226 220 217 215 213 209 207 204 202 202 202 203 204 205 206 207 207 206 204 203 203 207 212 216 219 221 224 226 230 235 242 248 252 252 250 245
183 185 190 195 199 201 204 210 215 217 220 224 228 231 233 234 237 239 241 243 245 247 248 248 250 251 252 253 253 254 254 254 254 253 252 252 253 256 258 259 257 254 251 248 246 243 239 234 229 224 218 212 207 204 202 199 198 197 195 195 195 196 198 199 200 200 200 199 199 200 203 207 210 213 215 218 219 220 222 230 240 248 252 251 245 236
174 174 178 185 191 196 201 206 209 212 215 219 223 228 231 231 231 232 233 235 237 239 240 240 240 240 242 243 244 246 248 248 249 249 249 250 251 252 253 252 251 248 245 242 238 234 229 224 219 213 206 199 194 192 189 188 186 186 186 186 187 188 189 190 190 190 191 193 196 199 202 203 204 206 207 208 208 211 217 228 237 243 246 244 237 227
170 172 175 177 179 185 194 200 201 203 209 212 216 220 223 221 218 217 219 221 219 218 218 220 219 217 216 216 217 222 228 231 232 232 232 233 234 235 236 236 235 233 230 225 220 215 210 205 200 195 190 186 184 182 180 179 177 177 177 177 178 178 179 179 180 182 185 188 192 194 194 193 193 193 194 195 198 205 216 225 232 235 236 234 230 224
165 170 174 172 168 168 177 185 190 194 197 197 198 199 197 195 193 191 188 188 187 185 184 183 184 185 184 178 175 179 187 191 194 196 196 195 195 196 198 200 201 201 200 197 195 191 188 185 181 179 177 176 175 174 174 173 172 172 172 173 173 173 174 175 176 179 182 184 185 184 182 180 180 180 182 185 193 205 215 223 228 230 229 227 226 224
160 166 170 167 165 163 163 167 174 181 181 175 172 169 165 165 164 162 159 158 158 157 156 157 159 159 155 149 147 148 149 150 151 151 151 151 151 151 152 153 154 157 160 164 166 168 169 169 169 169 168 168 168 168 168 169 169 170 170 171 171 172 174 176 178 180 181 182 180 177 174 171 170 171 174 182 195 208 216 221 224 225 223 223 223 224
148 156 162 159 157 156 155 156 160 167 171 166 157 148 143 143 143 143 145 144 142 139 137 137 138 136 132 127 126 128 129 129 128 127 127 127 128 129 130 131 133 134 136 139 143 147 152 155 158 160 162 162 162 163 163 164 166 167 169 170 172 174 177 179 181 182 181 180 177 173 169 166 165 167 174 187 202 212 216 218 219 220 221 222 224 225
143 145 152 154 151 146 144 149 154 158 164 165 158 148 139 133 131 131 133 130 129 128 126 125 123 121 119 117 116 116 117 117 116 116 116 117 118 119 120 121 123 124 126 127 129 132 136 140 145 149 152 155 157 158 159 161 163 165 168 171 173 176 178 180 180 179 178 176 173 169 166 164 165 170 181 196 207 212 214 214 214 216 219 222 225 227
143 141 142 148 153 152 142 142 148 155 159 161 161 157 150 139 132 126 121 117 118 121 122 120 116 113 114 114 114 114 114 114 113 113 112 113 113 114 115 115 116 117 118 120 121 123 125 128 131 135 141 146 150 153 156 159 161 164 167 170 172 173 174 173 172 171 171 169 167 165 164 165 169 178 189 200 207 211 213 212 213 213 216 219 224 228
136 137 135 136 146 153 149 145 147 153 157 157 156 156 157 152 144 133 119 113 112 114 115 116 115 112 110 110 111 113 114 114 114 114 114 115 115 115 115 114 113 112 112 111 114 118 121 123 125 130 137 143 148 151 154 157 159 162 164 165 165 165 164 163 162 162 162 161 161 160 162 167 174 183 192 201 207 212 214 215 216 217 217 220 223 228
134 136 135 135 138 141 144 146 149 153 157 153 148 145 150 154 154 146 131 121 116 114 112 113 115 114 112 110 109 110 112 111 110 111 113 114 114 115 115 114 114 114 112 109 109 111 115 120 126 133 139 143 146 147 148 149 151 154 155 155 155 155 154 153 153 152 152 153 155 158 162 169 177 184 193 201 208 214 218 221 223 225 227 228 229 232
137 138 137 138 140 140 142 145 148 153 158 157 152 148 150 152 154 150 139 130 126 124 120 116 115 115 116 116 115 113 112 111 110 111 112 113 114 115 117 118 119 119 120 118 116 115 115 117 120 125 133 137 138 138 138 140 143 145 146 147 147 147 146 145 145 145 147 151 155 161 168 174 180 187 195 202 210 217 223 228 232 236 237 237 236 235
136 138 138 140 146 150 153 153 156 160 166 167 165 162 158 156 153 147 137 130 128 129 127 121 117 117 120 122 124 125 125 124 122 121 121 122 124 127 130 132 132 134 136 134 132 130 128 126 123 121 124 128 129 128 130 133 135 137 139 139 140 140 140 140 141 144 148 154 160 167 173 180 186 192 199 207 214 222 228 234 239 242 242 241 239 236
142 143 144 148 155 161 163 164 165 167 170 170 167 163 158 155 151 146 136 129 128 129 127 121 117 117 120 126 131 136 140 139 136 133 130 131 135 140 144 144 144 145 147 143 140 138 138 136 133 131 129 123 121 121 123 124 125 127 128 129 130 131 134 136 141 146 152 158 166 173 181 186 191 197 203 210 218 226 232 237 241 242 241 239 237 235
150 151 152 157 163 167 170 169 168 165 165 166 165 160 154 151 151 148 141 137 134 132 126 118 111 108 115 128 137 145 150 148 143 138 133 133 138 146 150 149 147 147 148 145 142 141 143 143 142 140 136 126 120 119 118 117 117 119 120 122 123 126 130 136 143 150 157 164 171 179 187 192 196 200 207 215 222 228 233 237 238 238 238 237 235 234
153 156 157 159 163 169 171 171 168 164 162 162 162 161 159 156 155 154 149 145 142 139 135 130 123 110 115 135 144 154 161 158 152 146 139 135 140 148 153 154 151 148 148 147 146 145 147 148 149 148 144 137 131 127 124 122 122 123 123 124 127 130 136 143 150 156 162 169 177 184 192 197 202 206 212 220 226 231 234 236 237 237 237 237 236 234
160 163 162 162 164 169 171 170 168 166 164 161 160 161 162 161 160 158 155 151 148 147 147 140 133 129 137 151 158 161 166 165 158 149 142 137 140 149 155 157 155 151 149 148 147 148 148 150 150 150 147 143 138 134 131 130 130 131 131 133 136 140 146 152 158 164 169 174 180 188 196 203 208 213 219 225 230 233 236 237 238 238 238 238 237 236
168 172 170 168 169 171 172 173 172 170 167 164 162 160 159 161 162 161 159 157 155 152 150 142 132 130 139 152 159 162 165 167 160 149 138 134 138 147 154 157 156 151 147 145 145 145 145 145 145 143 142 139 136 134 132 133 134 136 137 139 142 147 154 160 166 171 175 179 185 192 200 207 213 218 224 228 232 235 237 238 239 239 239 239 238 237
172 178 180 177 173 171 174 179 180 179 176 173 169 164 160 162 163 162 161 161 160 159 157 147 138 136 143 149 154 159 164 167 160 147 135 133 138 146 153 156 154 150 145 144 144 144 142 142 141 139 137 136 133 132 133 136 137 139 142 146 151 157 164 170 176 179 183 187 192 199 205 211 217 222 227 230 233 236 237 238 239 239 240 240 240 240
171 179 182 185 179 174 178 185 188 188 185 181 175 169 165 164 164 164 166 166 164 164 163 155 152 153 153 152 155 161 166 169 161 148 137 136 141 147 152 156 155 150 146 145 146 146 145 145 145 144 143 142 142 143 144 146 148 150 154 159 165 173 182 187 188 190 192 195 199 204 210 215 221 226 229 232 234 236 238 238 239 240 240 241 242 243
168 173 174 182 186 185 186 188 189 189 190 186 179 173 171 168 167 167 170 169 166 164 163 161 163 165 162 158 159 163 167 175 169 157 141 134 143 152 155 157 156 152 148 149 151 151 151 151 152 153 153 154 156 158 160 161 163 165 168 173 180 189 198 200 201 202 203 202 204 208 213 218 223 227 230 232 234 236 237 238 239 241 242 243 244 245
150 164 170 177 184 191 193 189 188 189 192 191 188 185 184 181 177 174 173 171 168 166 165 166 167 166 163 161 161 164 167 173 175 167 146 133 148 159 160 161 160 157 153 155 156 156 155 156 158 160 162 164 167 170 173 176 177 180 182 185 191 200 207 209 209 207 206 206 208 212 215 219 223 226 229 231 233 235 237 239 241 243 245 246 246 246
115 151 164 165 166 171 183 186 188 188 190 191 192 193 194 191 186 181 178 176 174 171 167 162 156 152 155 158 161 163 167 170 171 167 149 141 156 164 165 166 165 164 162 162 162 162 161 162 164 166 170 174 179 185 190 194 196 196 195 197 204 210 213 213 212 210 209 210 213 215 218 221 223 226 229 231 233 236 240 243 245 247 248 247 246 245
104 127 144 147 149 152 164 180 186 188 188 189 190 190 189 186 183 180 179 178 174 168 159 148 139 139 149 157 162 166 169 171 171 168 149 143 157 165 168 170 170 170 169 169 169 170 171 172 174 178 184 191 198 205 213 217 214 209 204 206 209 212 212 213 213 213 213 214 215 217 219 222 224 228 231 234 237 241 244 248 249 250 249 247 246 245
102 111 122 130 133 134 140 158 174 184 189 190 190 189 186 182 177 173 170 168 165 159 149 139 135 141 153 160 166 170 172 173 174 173 164 149 155 163 170 175 176 174 172 173 175 179 184 187 192 198 204 210 212 214 217 221 216 208 204 207 209 210 211 213 214 215 215 215 217 219 222 225 229 232 236 240 244 246 249 249 249 248 247 246 244 243
98 101 106 110 114 119 126 141 158 174 185 189 192 192 189 183 172 162 157 160 161 157 149 145 145 150 156 164 171 175 175 175 176 177 175 160 155 160 170 176 179 177 174 175 179 187 193 200 207 213 216 217 210 201 196 202 204 203 203 204 205 207 209 212 213 214 215 217 220 223 227 232 236 240 244 246 248 249 249 248 246 245 243 242 242 242
104 100 97 97 99 105 113 124 140 158 173 182 187 191 193 186 172 161 160 165 164 159 153 152 151 150 154 165 175 179 178 178 178 177 178 170 158 159 171 176 179 179 174 172 180 192 200 208 218 222 221 215 206 196 190 188 187 189 194 198 201 203 207 209 211 214 218 221 226 231 236 241 244 247 249 249 248 247 245 244 242 241 240 241 242 243
119 114 109 104 103 104 107 113 123 138 154 167 176 184 191 193 185 177 173 172 166 159 154 154 153 147 141 152 168 179 183 183 181 179 179 170 161 163 173 176 180 180 174 166 170 187 202 214 221 223 216 209 204 200 196 192 187 184 187 193 200 205 210 214 217 222 226 230 235 240 244 246 247 248 247 245 243 242 240 239 239 240 240 241 243 245
128 126 122 119 116 115 114 114 117 122 132 150 166 176 185 194 198 194 185 178 170 162 157 152 147 141 133 130 137 170 195 194 188 183 182 169 160 167 175 177 180 183 178 159 139 147 190 209 214 214 207 202 201 201 201 200 196 194 196 202 208 214 220 225 229 232 236 240 243 245 246 246 245 243 240 238 237 236 236 235 237 240 243 245 246 248
128 127 125 125 124 124 124 125 127 130 136 150 165 174 179 186 197 201 193 183 177 172 165 157 152 148 143 133 117 141 209 202 194 187 186 183 172 169 177 177 181 186 186 170 138 123 160 192 199 202 201 198 199 201 203 204 204 207 211 217 223 228 233 237 239 241 243 244 245 245 243 241 238 235 233 232 231 231 231 231 236 242 247 250 251 253
126 125 124 125 127 130 133 135 139 144 150 157 164 170 175 180 187 192 190 186 184 182 177 168 161 158 156 154 154 163 185 195 193 189 187 190 183 176 180 179 181 185 191 188 168 137 137 159 182 189 193 194 197 201 205 207 209 214 220 226 231 236 241 243 244 245 245 245 243 241 239 236 232 230 229 228 228 228 229 229 234 244 252 257 259 261
125 125 125 128 131 134 138 142 146 150 153 156 160 163 167 171 175 180 183 185 188 190 189 180 171 165 163 158 147 138 163 184 188 188 188 190 187 181 182 183 183 185 190 192 186 160 134 136 165 180 186 191 195 200 204 207 211 215 220 226 231 236 242 244 245 245 244 242 239 237 234 232 229 228 229 229 229 230 231 233 237 246 256 261 265 268
124 125 127 130 133 135 138 141 143 144 143 143 143 143 144 147 156 168 176 180 184 189 196 196 187 179 174 164 145 129 146 175 185 188 189 194 195 189 185 186 187 187 188 188 187 178 147 144 150 165 181 189 193 198 203 206 209 214 218 222 227 232 237 241 241 240 237 234 231 228 228 227 227 228 230 232 234 235 237 239 243 249 256 262 268 273
123 123 125 129 130 131 133 134 134 133 129 125 123 121 121 125 137 153 165 172 175 174 174 181 192 193 190 184 170 151 164 179 187 190 191 198 203 200 189 191 193 193 189 187 186 180 158 153 156 160 169 183 190 196 201 204 208 212 217 221 224 229 233 236 235 232 230 227 224 222 224 225 227 230 234 237 239 242 245 248 250 254 258 263 269 275
119 118 118 120 121 122 122 122 123 123 122 119 117 116 117 122 132 144 155 163 166 163 155 148 154 176 196 207 232 259 236 208 199 196 196 202 208 207 192 196 200 200 193 190 189 184 162 152 158 162 163 168 180 193 201 205 208 211 216 221 226 229 231 233 232 228 226 224 223 223 225 227 230 235 240 244 247 250 253 256 258 261 264 266 270 275
115 112 111 111 111 112 112 112 113 114 115 116 118 118 120 125 134 143 152 160 165 167 166 162 159 162 174 194 236 272 266 234 212 204 200 204 209 211 202 202 206 206 201 196 194 190 175 152 151 157 157 159 169 185 196 204 208 211 215 221 224 226 230 234 235 233 231 227 226 227 230 233 237 242 248 253 256 258 260 262 264 267 269 271 272 275
114 111 110 109 108 108 108 107 107 108 109 111 113 116 121 128 136 144 153 161 168 173 177 176 172 167 167 173 180 187 206 207 201 198 198 203 208 213 216 211 206 205 206 207 206 202 186 160 149 155 163 164 167 174 181 192 198 204 211 219 223 226 233 242 247 245 238 231 229 230 235 241 247 252 257 261 264 266 268 268 269 270 273 274 276 277
118 116 114 113 111 110 109 107 106 107 108 109 111 116 122 130 138 144 150 158 164 169 173 172 168 163 163 167 163 156 155 166 176 184 193 200 207 213 221 214 203 197 198 202 207 204 193 175 164 163 164 158 159 167 176 183 189 197 208 216 222 230 243 255 258 253 242 233 231 236 247 254 261 266 271 274 276 279 281 280 280 281 283 284 284 283
126 123 120 117 115 113 112 110 109 110 112 114 117 124 132 137 141 145 149 153 155 156 158 157 155 153 153 153 150 149 151 156 165 174 184 193 200 205 209 206 193 185 182 182 183 185 184 175 167 162 161 153 151 157 165 172 183 196 209 221 230 238 253 263 260 249 240 239 245 258 270 275 279 283 286 289 292 295 296 296 295 295 296 297 297 295
132 127 124 122 121 120 117 116 116 116 117 120 126 134 140 144 144 144 147 148 146 145 147 149 150 148 145 141 140 143 147 152 159 165 172 175 172 166 165 176 177 174 170 167 165 164 161 154 149 149 151 149 150 155 160 163 177 200 233 257 268 276 280 272 257 245 244 255 269 280 288 292 294 296 297 299 301 303 305 306 306 306 306 305 303 300
133 129 127 126 125 124 123 123 123 122 125 129 135 140 143 147 148 149 150 148 145 144 147 150 150 146 140 137 137 139 142 145 150 154 156 153 147 143 143 150 157 161 161 158 153 149 147 142 136 133 133 139 143 151 168 193 214 238 262 276 288 293 288 268 248 250 264 279 286 291 296 300 302 302 303 304 306 307 309 310 311 311 311 310 306 302
133 131 130 129 128 127 126 127 126 127 130 136 140 141 142 145 150 155 159 154 150 149 151 154 154 148 141 136 134 135 137 138 140 142 144 144 143 141 142 143 145 149 155 155 151 149 153 159 152 145 149 163 220 235 235 249 263 275 287 295 301 301 296 284 280 283 287 291 294 296 299 301 303 303 304 305 306 308 309 311 312 313 312 309 305 299
134 133 132 131 131 131 130 129 129 131 134 140 141 142 141 143 151 158 161 158 154 153 153 155 156 152 143 136 133 133 133 134 134 135 138 141 143 145 144 146 152 164 175 181 175 170 172 175 181 190 230 275 272 263 261 267 275 284 293 298 296 289 284 293 301 305 304 300 299 299 301 304 305 305 305 304 305 307 310 312 313 313 312 308 301 294
136 134 134 133 132 132 130 130 133 137 141 147 148 147 146 148 154 160 161 157 155 154 154 156 154 146 134 131 132 132 131 131 133 135 137 140 144 149 153 158 170 187 202 207 207 202 192 182 202 251 285 287 281 276 275 279 285 291 296 297 294 290 289 295 301 304 305 304 304 305 307 309 309 309 309 308 310 312 314 316 318 318 316 311 303 293
136 135 134 133 133 132 132 134 138 144 149 154 155 155 154 155 159 162 162 159 155 153 155 159 154 143 132 130 131 131 130 130 132 134 136 139 144 150 154 162 171 184 199 219 241 261 277 289 294 292 290 287 284 283 285 287 291 294 299 301 297 292 291 293 296 300 303 307 309 311 313 313 314 314 315 316 316 317 319 321 322 323 321 317 310 302
135 134 132 132 132 133 135 138 144 150 155 157 158 158 159 161 164 165 164 162 158 155 154 156 152 143 137 135 135 134 131 129 129 131 134 136 139 145 151 161 176 200 224 252 272 285 292 296 298 296 293 289 286 287 291 294 296 300 308 308 301 298 298 300 302 304 307 311 314 317 318 319 321 321 321 321 320 320 321 322 322 323 322 320 316 310
135 134 133 134 136 139 144 148 152 157 158 156 155 155 157 162 167 168 165 163 161 157 153 150 145 140 138 138 140 141 139 135 133 133 135 136 139 143 151 168 207 252 273 284 292 297 300 301 299 294 288 282 280 285 298 304 301 295 304 305 304 305 307 308 310 313 315 317 319 320 323 324 325 325 324 322 319 318 318 318 318 319 321 320 316 311
141 143 144 148 151 156 160 161 163 163 160 155 152 151 152 156 162 164 163 163 161 158 154 150 146 141 137 136 139 144 146 143 140 138 139 140 143 152 172 234 275 290 296 298 301 303 303 299 296 292 285 275 270 274 303 17 104 193 298 310 313 315 317 317 318 320 322 323 323 323 325 325 325 325 324 319 315 312 312 312 313 314 317 317 313 307
162 166 171 174 176 177 176 174 171 168 163 158 152 149 149 151 154 158 161 161 159 156 155 154 151 145 139 138 139 141 144 144 143 142 144 150 160 174 216 274 293 303 309 312 314 312 299 276 258 225 134 128 125 113 102 101 96 19 328 323 323 323 324 324 325 325 326 326 325 324 324 324 324 324 322 315 311 308 308 309 309 310 312 312 308 304
178 182 186 190 191 190 187 182 177 173 168 163 157 152 149 148 150 152 154 154 150 147 150 155 154 150 145 143 143 143 145 148 148 149 155 165 181 213 288 311 321 331 340 350 0 15 72 102 113 123 127 108 93 83 65 41 6 342 334 328 328 329 329 328 327 328 328 327 325 324 322 321 320 319 317 312 308 307 306 306 306 307 309 309 307 305
Height
738 739 740 741 742 743 744 744 745 746 746 747 748 748 749 749 750 751 752 753 754 754 755 756 756 757 757 758 759 760 760 761 762 763 763 764 765 766 767 768 769 770 771 772 772 773 773 774 774 775 775 775 776 776 777 778 780 781 782 784 785 786 788 789 790 791 792 794 794 795 796 798 799 801 802 804 806 807 808 809 810 811 811 810 809 809
737 738 739 740 741 742 742 743 744 744 745 746 746 747 747 748 748 749 750 751 752 753 753 754 754 754 755 756 757 758 758 759 759 760 761 762 763 764 765 765 766 767 768 769 770 770 771 772 772 772 773 774 774 775 775 776 778 779 781 782 784 785 786 787 788 789 790 791 792 793 794 795 797 799 800 802 804 805 807 808 809 810 810 809 809 808
737 738 739 739 740 740 741 742 742 743 744 745 745 746 746 747 747 748 749 749 750 751 751 752 752 753 754 754 755 755 756 756 757 758 759 760 761 762 763 763 764 765 766 767 767 768 769 769 770 770 771 772 773 774 774 775 776 778 779 781 783 784 785 786 787 788 788 789 789 790 791 793 795 797 799 801 802 804 805 806 807 808 809 809 808 808
736 737 738 738 739 739 740 741 742 743 744 744 744 745 745 746 747 747 748 748 749 749 750 750 751 752 752 753 753 754 754 754 755 756 757 758 759 760 760 761 761 762 763 764 765 766 767 768 768 769 769 770 771 772 773 774 775 776 778 779 781 783 785 786 787 787 787 787 787 788 789 791 793 795 797 799 800 802 803 804 806 807 808 808 808 808
735 736 737 737 738 738 739 740 741 742 743 743 744 744 744 745 746 747 747 748 748 749 749 749 750 750 751 751 752 752 752 752 753 754 755 756 758 759 759 760 760 760 760 761 762 763 764 765 766 767 768 768 769 770 771 772 773 774 776 778 779 781 783 785 786 787 787 787 787 787 788 789 791 793 795 797 799 800 802 803 804 805 806 807 808 808
735 735 736 736 737 738 739 739 740 741 742 743 743 744 744 745 746 746 747 748 748 749 749 749 749 749 750 750 750 750 750 751 751 752 753 754 755 757 758 759 760 760 760 760 760 761 762 764 765 766 767 767 767 768 768 769 770 772 774 775 777 779 780 783 784 786 787 787 788 788 788 788 789 791 794 796 798 799 801 802 803 804 805 806 807 807
734 735 735 736 737 738 739 739 740 741 741 742 743 744 745 745 746 747 747 748 748 748 748 748 748 749 749 749 749 749 749 750 750 751 752 753 754 755 757 759 760 761 761 761 761 762 762 763 764 765 766 766 766 766 766 767 768 770 772 773 775 777 779 781 783 785 786 787 788 788 788 788 789 790 792 794 797 799 800 802 802 803 804 804 806 806
734 735 736 736 737 738 739 740 741 741 742 742 743 744 745 746 747 747 747 747 748 748 748 748 749 749 749 749 750 750 750 750 750 751 752 753 754 756 757 759 760 761 762 763 764 764 764 764 764 765 765 766 766 766 766 766 767 769 770 773 774 776 779 780 782 784 785 786 787 787 787 787 788 789 791 794 796 798 800 801 801 802 802 804 804 805
733 735 736 737 737 738 739 740 741 742 742 743 743 744 745 746 747 747 748 748 748 749 749 749 749 750 750 751 751 751 751 751 751 752 753 754 755 757 758 760 761 762 763 764 765 766 767 768 768 768 767 766 766 765 766 766 767 769 771 773 774 776 778 780 781 783 784 785 786 786 786 787 788 789 791 793 795 798 799 800 801 801 801 802 804 804
733 734 736 737 738 738 739 740 742 742 743 744 744 744 745 746 747 748 749 749 750 750 750 750 751 751 752 752 752 751 751 752 752 753 754 755 756 758 759 761 763 764 765 766 767 768 769 770 771 771 770 769 768 767 766 767 768 769 772 773 775 776 778 779 780 782 783 784 784 785 786 786 788 789 790 793 794 797 798 799 800 800 800 801 802 803
733 734 735 737 738 739 739 740 741 742 743 744 745 745 746 746 746 747 749 750 751 751 751 751 752 752 753 753 753 752 752 752 753 754 754 755 757 759 760 762 764 765 767 768 769 770 771 772 773 773 773 772 771 769 768 768 769 771 772 774 775 776 778 779 780 781 782 783 784 784 785 786 788 789 790 792 794 796 797 798 799 799 799 800 801 802
733 734 735 737 738 739 740 740 741 743 743 744 745 746 747 747 747 747 749 750 752 752 753 753 753 753 754 754 754 754 754 754 754 755 756 757 758 759 761 763 764 766 767 769 770 771 772 773 774 774 774 774 773 772 770 770 770 772 773 774 775 776 777 778 779 780 781 782 784 784 785 787 788 789 790 792 793 795 796 797 798 798 799 799 800 801
732 734 735 736 738 739 739 741 742 743 743 744 744 745 747 747 747 748 749 750 751 752 753 753 754 754 754 755 755 756 756 756 757 757 758 759 760 761 763 764 765 767 768 769 770 771 772 774 774 775 775 775 774 773 772 771 772 773 774 774 775 776 777 778 779 780 781 783 784 785 786 787 788 789 790 791 793 794 795 796 796 797 798 799 799 800
732 734 735 737 738 739 739 740 741 742 743 743 744 744 745 746 747 748 749 750 751 752 752 753 754 754 755 756 756 757 757 758 758 759 759 760 762 763 764 765 766 767 768 769 770 771 772 773 774 775 776 775 774 774 773 773 773 774 774 775 775 776 777 778 779 780 782 783 784 785 786 787 788 789 790 791 792 794 794 795 795 796 797 798 798 799
732 733 735 736 738 738 739 739 740 741 742 742 743 744 745 746 747 748 749 750 751 752 752 753 754 755 756 756 757 758 758 758 759 759 760 761 762 763 764 765 766 767 768 769 770 771 772 773 774 775 776 775 775 774 774 774 774 774 775 775 776 776 778 779 780 781 782 784 785 786 787 787 788 789 789 791 792 793 794 794 795 796 797 797 798 798
731 732 734 735 737 738 738 739 739 740 741 742 743 744 745 746 747 747 748 749 750 751 752 753 754 755 757 757 758 758 759 759 759 759 760 762 763 764 764 765 766 767 768 769 770 771 772 773 774 774 775 776 776 776 776 776 776 775 775 775 776 777 778 779 780 782 783 784 785 786 787 787 788 788 789 790 792 793 793 794 795 795 796 797 797 797
730 731 733 734 736 737 738 739 739 740 740 741 742 743 744 745 745 746 747 748 749 750 751 752 753 755 757 758 759 759 759 759 759 760 761 762 763 764 765 766 766 767 768 769 770 771 772 773 773 774 774 775 776 776 776 776 776 776 776 776 777 778 779 780 781 782 783 784 785 786 787 787 788 788 789 790 791 792 793 794 794 795 796 796 796 796
730 731 732 733 734 736 737 738 739 739 740 741 742 743 744 744 745 746 746 747 748 749 750 751 752 754 756 758 758 759 759 759 759 760 761 762 764 764 765 766 766 767 768 769 770 771 771 772 773 774 774 774 775 776 776 777 777 777 777 777 777 778 779 781 782 783 783 784 785 786 787 787 788 788 789 790 791 792 793 794 794 795 795 796 795 795
729 730 731 732 733 734 735 736 737 738 739 740 741 742 743 744 745 745 746 747 748 748 749 750 751 753 754 755 757 758 759 759 760 760 761 763 764 764 765 766 766 767 768 769 770 770 771 771 772 773 774 774 775 776 776 777 777 777 777 778 778 779 780 781 782 783 783 784 784 785 786 787 787 788 789 790 791 792 793 794 794 794 795 794 794 794
728 729 730 730 731 733 734 735 735 736 737 738 739 740 742 743 744 745 746 747 747 748 749 749 751 752 753 754 756 757 759 759 760 760 761 763 764 764 765 766 766 767 768 769 769 770 770 771 772 773 774 774 775 776 777 777 777 778 778 778 779 779 780 781 782 782 783 783 784 785 785 786 787 788 789 789 790 791 792 793 793 794 794 793 793 792
728 729 729 730 730 731 733 733 734 735 736 737 738 739 740 742 743 744 745 746 747 747 748 749 750 751 752 754 755 757 758 759 760 760 761 763 764 765 765 766 766 766 767 768 769 769 770 771 772 773 773 774 775 776 776 777 777 778 778 779 779 780 780 781 781 782 782 783 783 784 784 785 786 787 788 789 790 791 791 792 792 792 792 792 791 791
728 729 729 730 730 731 732 732 734 735 736 737 738 739 739 741 742 743 744 745 746 747 748 749 750 751 752 754 755 756 758 759 759 759 761 763 764 765 765 766 766 766 767 768 768 769 770 770 771 772 773 774 774 775 776 776 777 777 778 778 779 780 780 781 781 781 782 782 782 783 784 784 785 786 787 788 789 790 790 791 791 791 791 790 790 789
729 729 730 730 731 732 732 733 734 735 736 737 738 738 739 740 741 742 743 744 745 746 747 749 750 751 753 754 755 756 757 759 759 759 760 762 764 764 765 766 766 767 767 768 768 769 769 770 771 771 772 773 773 774 775 775 776 776 777 778 779 780 780 781 781 781 781 781 782 782 783 784 784 785 786 787 788 789 789 789 789 789 789 789 789 789
729 730 730 731 732 732 733 733 734 735 736 737 738 739 740 741 742 743 744 744 745 746 747 749 750 752 753 754 755 756 757 758 759 759 760 762 763 764 765 766 766 767 767 768 768 769 769 770 770 771 772 772 773 774 774 774 775 776 777 778 779 779 780 780 781 781 781 781 781 782 782 783 784 784 785 786 786 787 787 788 788 788 788 788 788 788
730 730 731 732 732 733 733 734 734 735 736 737 738 739 740 741 742 743 744 744 745 746 748 749 751 753 754 754 755 756 757 757 758 759 759 760 762 764 764 765 766 767 767 768 768 769 769 769 770 771 771 772 773 773 774 774 775 775 776 777 778 779 779 780 780 780 780 780 781 781 781 782 783 783 784 784 785 785 786 786 786 787 787 787 787 787
731 731 732 732 733 733 734 734 735 735 736 737 738 739 740 741 742 743 744 745 746 747 748 749 751 753 753 754 755 755 756 757 758 758 758 759 761 763 764 765 765 766 767 767 768 768 769 769 769 770 771 771 772 773 774 774 775 775 776 777 778 779 779 779 780 780 780 780 780 780 781 781 782 782 783 783 783 784 784 785 785 786 786 786 786 786
732 732 733 734 734 734 734 735 735 736 737 738 739 739 740 741 742 743 744 745 746 747 748 749 751 753 753 754 754 755 755 756 757 758 758 759 760 762 763 764 765 765 766 767 767 768 768 769 769 769 770 771 772 773 774 774 775 776 776 777 778 778 779 779 779 779 779 779 779 780 780 780 781 781 781 782 782 783 783 784 784 785 785 785 785 784
733 734 734 734 735 735 735 736 736 737 738 739 739 740 740 741 742 743 744 745 746 747 748 749 750 752 753 754 754 754 755 756 757 758 758 759 759 760 762 763 764 765 766 766 767 767 768 768 769 769 770 771 772 773 774 774 775 776 776 777 777 778 778 778 779 779 779 779 779 779 779 779 780 780 781 781 781 782 783 783 784 784 784 784 783 783
733 734 735 735 736 736 736 737 738 739 739 739 740 740 741 741 742 742 743 744 745 747 748 749 750 751 752 753 754 755 756 756 757 758 758 759 759 760 761 762 764 764 765 766 767 767 768 768 769 769 769 770 771 772 773 774 774 775 776 776 777 777 777 777 778 778 778 778 778 778 779 779 779 780 780 780 781 781 782 782 783 783 782 782 781 781
733 734 734 735 736 737 737 738 739 740 740 740 741 741 741 741 742 742 743 744 745 746 748 749 750 751 752 754 755 756 757 757 757 758 758 759 759 760 761 762 763 764 765 766 767 768 768 768 768 769 769 770 771 772 773 774 774 775 775 775 776 776 776 776 777 777 777 777 778 778 778 779 779 779 780 780 780 781 781 781 781 781 781 780 780 779
734 734 735 735 736 736 737 738 739 740 740 740 740 741 741 742 742 743 743 744 744 745 746 748 749 750 752 754 755 756 757 756 757 758 758 759 759 760 761 762 763 764 764 765 766 767 768 768 768 768 769 769 770 771 772 773 774 774 775 775 775 775 776 776 776 776 776 777 777 777 778 778 779 779 779 779 779 780 780 780 780 780 779 779 778 778
734 735 735 736 737 737 738 738 739 739 739 740 740 741 741 742 743 743 744 744 745 745 746 747 749 750 751 752 753 754 755 755 756 757 758 759 759 760 760 761 762 763 764 764 764 765 766 767 768 768 769 769 770 771 772 773 774 774 774 775 775 775 775 775 775 776 776 776 777 777 777 778 778 778 778 779 779 779 779 779 779 778 778 777 776 776
734 735 736 737 737 738 738 739 739 740 740 741 741 742 742 743 743 744 744 745 745 746 747 748 749 750 751 752 752 753 754 754 755 757 758 759 759 759 760 761 761 762 763 764 764 764 765 766 767 768 768 769 769 770 771 772 773 774 774 774 775 775 775 775 775 775 776 776 776 777 777 777 777 777 777 777 777 777 777 777 777 776 776 775 774 774
735 736 737 737 738 739 739 740 740 741 741 742 742 742 743 743 744 744 744 745 746 747 748 749 749 750 751 752 752 753 754 754 755 756 757 758 759 759 759 760 761 762 763 764 764 765 765 766 766 767 768 769 769 770 771 772 773 773 774 774 774 774 774 774 775 775 775 776 776 776 776 776 776 776 776 776 776 776 775 775 775 774 774 774 773 773
736 737 737 738 739 739 740 740 741 741 742 742 743 743 743 744 744 745 745 746 747 748 749 749 750 751 751 752 752 753 754 754 755 756 757 758 758 759 759 760 760 761 762 763 764 765 765 766 766 767 767 769 770 770 771 772 773 773 774 774 774 774 774 774 774 775 775 775 775 775 775 775 775 775 775 775 774 774 774 774 773 773 773 772 772 771
737 737 738 739 739 740 740 741 741 742 742 743 743 744 744 744 745 746 746 747 748 749 749 750 750 751 752 752 753 753 754 754 755 756 757 758 758 758 759 759 760 761 762 763 764 764 765 766 766 767 767 769 769 770 771 772 772 773 773 774 774 774 774 774 774 774 774 774 774 774 774 774 774 774 773 773 773 773 772 772 772 771 771 771 770 770
737 738 739 739 740 740 741 741 742 742 743 743 744 744 745 745 746 746 747 748 748 749 749 750 750 751 752 752 753 753 754 754 755 756 757 757 758 758 759 759 760 761 762 762 763 764 765 765 766 767 768 769 769 770 770 771 772 773 773 773 773 773 774 774 773 773 774 774 774 773 773 773 772 772 772 771 771 771 770 770 770 770 770 769 769 769
738 739 739 740 740 741 741 742 742 743 743 744 744 745 745 746 746 747 747 748 748 749 749 750 750 751 752 752 753 753 754 754 755 756 757 757 758 759 759 759 760 761 762 763 763 764 764 765 766 767 768 768 769 769 770 770 771 772 772 772 773 773 773 773 772 772 772 772 772 772 772 771 771 770 770 770 769 769 769 769 769 768 768 768 767 767
739 739 740 740 741 741 742 742 743 743 744 744 745 745 746 746 747 747 748 748 749 749 749 750 750 751 752 753 753 754 754 755 755 756 757 757 758 759 759 760 760 761 762 763 764 764 764 764 765 766 767 768 768 769 769 770 771 771 771 772 772 772 772 771 771 771 771 771 771 770 770 770 769 769 769 768 768 767 767 767 767 766 766 766 765 765
739 740 741 741 742 742 742 743 744 744 744 745 745 746 746 747 747 748 748 749 749 749 750 750 751 752 752 753 754 754 754 755 756 756 757 758 758 759 759 760 761 761 762 763 763 764 764 764 764 765 766 767 768 768 769 769 770 770 770 770 771 771 771 770 770 770 770 769 769 769 769 768 768 767 767 766 766 766 765 765 765 764 764 764 763 763
740 741 741 742 742 743 743 744 744 745 745 746 746 747 747 747 748 748 748 749 749 750 750 751 751 752 753 753 754 754 755 756 756 757 758 758 759 759 760 761 761 762 762 763 763 764 764 764 764 765 766 766 767 768 768 769 769 769 769 769 769 769 769 769 769 769 769 768 768 768 767 767 766 766 765 765 764 764 764 764 763 763 763 762 761 761
741 742 742 743 743 743 744 744 745 745 746 747 747 747 748 748 748 749 749 749 750 750 751 751 752 752 753 754 754 755 756 756 757 757 758 759 759 760 760 761 762 762 762 763 763 763 764 764 764 765 765 766 766 767 767 768 768 768 768 768 768 768 768 768 768 768 768 767 767 766 766 765 765 764 764 764 763 763 763 762 762 761 761 760 760 759
742 743 743 743 744 744 744 745 745 746 747 747 748 748 748 749 749 749 749 749 750 751 751 752 752 753 753 754 755 756 756 757 757 758 758 759 759 760 761 761 762 762 762 763 763 763 764 764 764 764 765 765 766 766 767 767 767 767 767 767 767 767 767 767 767 767 767 766 766 765 765 764 764 763 763 762 762 762 761 761 760 760 760 759 759 758
743 743 744 744 744 745 745 746 746 747 747 748 748 749 749 749 749 749 750 750 751 751 752 752 753 753 754 754 755 756 757 757 758 758 759 759 760 760 761 761 762 762 762 763 763 763 763 764 764 764 764 765 765 765 766 766 766 766 766 766 766 766 766 766 766 765 765 765 765 764 764 763 763 762 761 761 760 760 760 759 759 759 759 758 758 757
744 744 744 745 745 746 746 747 747 748 748 749 749 749 749 750 750 750 750 751 751 752 752 753 753 754 754 755 756 756 757 758 758 759 759 759 760 761 761 761 762 762 763 763 763 763 763 764 764 764 764 764 764 765 765 765 765 765 765 765 765 765 765 765 765 765 764 764 764 763 763 762 762 761 760 759 759 759 758 758 758 757 757 757 757 756
744 745 745 746 746 746 747 747 748 748 749 749 749 750 750 750 751 751 751 752 752 752 753 753 754 754 755 755 756 757 757 758 759 759 759 760 760 761 761 762 762 762 763 763 763 763 763 763 764 764 764 764 764 764 764 764 764 764 764 765 765 764 764 764 764 764 764 763 763 762 762 761 761 760 759 758 757 757 757 756 756 756 756 756 755 755
745 745 746 746 747 747 748 748 748 749 749 749 750 750 751 751 752 752 752 752 753 753 754 754 754 754 755 756 756 757 758 758 759 759 760 760 760 761 761 762 762 762 762 763 763 763 763 763 763 763 763 763 763 763 764 764 764 764 764 764 764 764 764 764 764 763 763 763 762 762 761 760 760 759 758 757 756 755 755 755 755 755 755 755 754 754
746 746 747 747 747 748 748 749 749 749 749 750 750 751 751 752 752 753 753 753 754 754 754 754 755 755 756 756 757 758 758 759 759 759 760 760 761 761 761 762 762 762 762 762 762 762 762 762 762 762 762 762 763 763 763 763 764 764 764 764 764 763 763 763 763 763 762 762 761 761 760 760 759 759 757 756 755 754 754 754 754 754 754 754 754 753
746 747 747 747 748 748 749 749 749 749 750 750 751 751 752 752 753 753 753 754 754 754 754 755 755 756 756 757 758 758 759 759 759 760 760 761 761 761 762 762 762 762 762 762 762 762 761 761 761 762 762 762 762 763 763 763 763 763 763 763 763 763 763 762 762 762 762 761 761 760 760 759 759 759 758 756 755 754 754 753 753 753 753 753 753 753
747 747 747 748 748 748 749 749 749 750 750 751 751 752 752 753 753 754 754 754 754 754 755 755 756 756 757 758 758 759 759 759 760 760 760 761 761 761 761 761 762 762 761 761 761 761 761 761 761 761 761 762 762 762 763 763 763 763 763 763 763 762 762 762 761 761 761 760 760 759 759 759 759 758 758 757 755 754 753 752 752 752 752 752 752 752
747 747 748 748 748 749 749 749 750 750 751 751 751 752 752 753 753 754 754 754 755 755 755 756 756 757 757 758 758 759 759 759 760 760 761 761 761 761 761 761 761 761 761 761 761 760 760 760 761 761 761 762 762 762 763 763 763 763 763 763 762 762 762 761 761 760 760 760 759 759 759 758 758 758 757 757 755 754 752 751 751 751 751 751 751 750